This is the latest recevied weather packets stored in our database for station/object N7AWM. If no packets are shown the sender has not sent any weather packets the latest 10 day(s).
| Time | Temp. | Humidity | Pressure | Rain* | Wind** | Luminosity | Snow |
|---|---|---|---|---|---|---|---|
| 1788552702 | 17.22° C | 50% | 1010.3 hPa | 0 mm | - | - | - |
| 1788551862 | 17.78° C | 53% | 1010.3 hPa | 0 mm | - | - | - |
| 1788551023 | 16.67° C | 55% | 1010.5 hPa | 0 mm | - | - | - |
| 1788550183 | 16.67° C | 55% | 1010.6 hPa | 0 mm | - | - | - |
| 1788549343 | 16.67° C | 58% | 1010.7 hPa | 0 mm | - | - | - |
| 1788548503 | 15.56° C | 60% | 1010.6 hPa | 0 mm | - | - | - |
| 1788547663 | 16.11° C | 60% | 1010.5 hPa | 0 mm | - | - | - |
| 1788546823 | 16.11° C | 61% | 1010.5 hPa | 0 mm | - | - | - |
| 1788545983 | 16.11° C | 61% | 1010.5 hPa | 0 mm | - | - | - |
| 1788545143 | 15.56° C | 65% | 1010.4 hPa | 0 mm | - | - | - |
| 1788544303 | 15.56° C | 65% | 1010.5 hPa | 0 mm | - | - | - |
| 1788543463 | 15.56° C | 65% | 1010.6 hPa | 0 mm | - | - | - |
| 1788542623 | 15° C | 68% | 1010.6 hPa | 0 mm | - | - | - |
| 1788541783 | 15° C | 67% | 1010.5 hPa | 0 mm | - | - | - |
| 1788540943 | 14.44° C | 66% | 1010.5 hPa | 0 mm | - | - | - |
| 1788540103 | 15° C | 68% | 1010.4 hPa | 0 mm | - | - | - |
| 1788539264 | 14.44° C | 66% | 1010.3 hPa | 0 mm | - | - | - |
| 1788538424 | 14.44° C | 67% | 1010.4 hPa | 0 mm | - | - | - |
| 1788537584 | 13.33° C | 70% | 1010.5 hPa | 0 mm | - | - | - |
| 1788536747 | 12.78° C | 74% | 1010.6 hPa | 0 mm | - | - | - |
| 1788535904 | 11.67° C | 77% | 1010.5 hPa | 0 mm | - | - | - |
| 1788535064 | 11.11° C | 80% | 1010.5 hPa | 0 mm | - | - | - |
| 1788534224 | 11.67° C | 75% | 1010.3 hPa | 0 mm | - | - | - |
| 1788533384 | 11.11° C | 78% | 1010.2 hPa | 0 mm | - | - | - |
| 1788532544 | 10° C | 80% | 1010.1 hPa | 0 mm | - | - | - |
* Rain latest hour (hover to see other rain measurements)
** Current wind speed in m/s (hover to see current wind gust speed)